Date,TemperatureHighF,TemperatureAvgF,TemperatureLowF,DewpointHighF,DewpointAvgF,DewpointLowF,HumidityHigh,HumidityAvg,HumidityLow,PressureMaxIn,PressureMinIn,WindSpeedMaxMPH,WindSpeedAvgMPH,GustSpeedMaxMPH,PrecipitationSumIn
2013-4-1,76,61,45,-100,-100,-100,0,0,100,0.00,40.00,0,-999,0,0.03
2013-4-2,63,54,44,-100,-100,-100,0,0,100,0.00,40.00,0,-999,0,0.38
2013-4-3,51,46,42,-100,-100,-100,0,0,100,0.00,40.00,0,-999,0,0.19
2013-4-4,54,45,40,-100,-100,-100,0,0,100,0.00,40.00,0,-999,0,0.22
2013-4-5,69,56,43,-100,-100,-100,0,0,100,0.00,40.00,0,-999,0,0.02
2013-4-6,75,62,51,-100,-100,-100,0,0,100,0.00,40.00,0,-999,0,0.00
2013-4-7,69,64,58,-100,-100,-100,0,0,100,0.00,40.00,0,-999,0,0.00
2013-4-8,76,67,61,-100,-100,-100,0,0,100,0.00,40.00,0,-999,0,0.00
2013-4-9,82,74,66,-100,-100,-100,0,0,100,0.00,40.00,0,-999,0,0.00
2013-4-10,75,53,41,-100,-100,-100,0,0,100,0.00,40.00,0,-999,0,0.15
2013-4-11,58,47,38,-100,-100,-100,0,0,100,0.00,40.00,0,-999,0,0.13
2013-4-12,74,54,37,-100,-100,-100,0,0,100,0.00,40.00,0,-999,0,0.00
2013-4-13,77,64,50,-100,-100,-100,0,0,100,0.00,40.00,0,-999,0,0.00
2013-4-14,79,67,55,-100,-100,-100,0,0,100,0.00,40.00,0,-999,0,0.00
2013-4-15,85,73,64,-100,-100,-100,0,0,100,0.00,40.00,0,-999,0,0.00
2013-4-16,85,76,69,-100,-100,-100,0,0,100,0.00,40.00,0,-999,0,0.00
2013-4-17,83,77,72,-100,-100,-100,0,0,100,0.00,40.00,0,-999,0,0.00
2013-4-18,76,57,47,-100,-100,-100,0,0,100,0.00,40.00,0,-999,0,0.44
2013-4-19,61,48,38,-100,-100,-100,0,0,100,0.00,40.00,0,-999,0,0.01
2013-4-20,68,54,37,-100,-100,-100,0,0,100,0.00,40.00,0,-999,0,0.00
2013-4-21,69,58,47,-100,-100,-100,0,0,100,0.00,40.00,0,-999,0,0.00
2013-4-22,75,63,47,-100,-100,-100,0,0,100,0.00,40.00,0,-999,0,0.00
2013-4-23,66,57,45,-100,-100,-100,0,0,100,0.00,40.00,0,-999,0,0.00
2013-4-24,62,49,40,-100,-100,-100,0,0,100,0.00,40.00,0,-999,0,0.12
2013-4-25,69,56,37,-100,-100,-100,0,0,100,0.00,40.00,0,-999,0,0.01
2013-4-26,69,60,53,-100,-100,-100,0,0,100,0.00,40.00,0,-999,0,0.08
2013-4-27,67,62,55,-100,-100,-100,0,0,100,0.00,40.00,0,-999,0,0.06
2013-4-28,78,62,49,-100,-100,-100,0,0,100,0.00,40.00,0,-999,0,0.06
2013-4-29,83,69,56,-100,-100,-100,0,0,100,0.00,40.00,0,-999,0,0.00
2013-4-30,82,76,60,-100,-100,-100,0,0,100,0.00,40.00,0,-999,0,0.00